This demonstration page uses our WeatherBlox Daily Observations layout. Learn more.

Left ArrowRight Arrow

39.01783, -85.05884

Hourly Observations for May 17, 2021

Temp ( °F °C ) Dew Point ( °F °C ) Humidity (%) Winds ( mph kmh ) Pressure ( in mb ) Visibility ( mi km ) Precip ( " mm )
12:52 am 00:52 Mostly Cloudy 59 15 51 10.6 75 75 SE 5 7 30.16 1021 10 16 N/A
1:52 am 01:52 Cloudy 60 15.6 51 10.6 72 72 ESE 7 11 30.14 1021 10 16 N/A
2:52 am 02:52 Cloudy 60 15.6 51 10.6 72 72 SE 9 15 30.13 1020 10 16 N/A
3:52 am 03:52 Cloudy 59 15 51 10.6 75 75 SE 10 17 30.13 1020 10 16 N/A
4:52 am 04:52 Cloudy 60 15.6 51 10.6 72 72 ESE 7 11 30.13 1020 10 16 N/A
5:19 am 05:19 Cloudy with Thunderstorms 58 14.4 53 11.7 84 84 S 3 6 30.17 1022 3 5 0.05 1.27
5:29 am 05:29 Cloudy with Heavy Thunderstorms 57 13.9 53 11.7 87 87 S 5 7 30.17 1022 2 3 0.09 2.29
5:37 am 05:37 Cloudy with Heavy Thunderstorms 56 13.3 53 11.7 90 90 SE 9 15 30.16 1021 2 2 0.15 3.81
5:47 am 05:47 Cloudy with Heavy Thunderstorms 57 14 54 12 88 88 ESE 6 9 30.16 1021 3 5 0.23 5.84
5:48 am 05:48 Cloudy with Heavy Thunderstorms 57 13.9 54 12.2 90 90 ESE 6 9 30.14 1021 3 5 0.23 5.84
6:10 am 06:10 Cloudy with Heavy Thunderstorms 57 13.9 54 12.2 90 90 S 3 6 30.18 1022 2 3 0.14 3.56
6:16 am 06:16 Cloudy with Heavy Rain 57 13.9 54 12.2 90 90 E 6 9 30.17 1022 2 3 0.19 4.83
6:26 am 06:26 Cloudy with Rain 57 13.9 55 12.8 93 93 ENE 7 11 30.18 1022 4 6 0.21 5.33
6:42 am 06:42 Cloudy with Heavy Rain 58 14.4 55 12.8 90 90 E 8 13 30.19 1022 3 4 0.30 7.62
6:52 am 06:52 Cloudy with Heavy Rain 58 14.4 55 12.8 90 90 ESE 10 17 30.16 1021 2 3 0.45 11.43
6:58 am 06:58 Cloudy with Rain 58 14.4 56 13.3 93 93 ESE 8 13 30.18 1022 3 5 0.05 1.27
7:52 am 07:52 Cloudy with Light Rain 58 14.4 56 13.3 93 93 E 12 19 30.19 1022 4 6 0.31 7.87
8:04 am 08:04 Cloudy with Heavy Rain 58 14.4 56 13.3 93 93 N 8 13 30.22 1023 2 2 0.02 0.51
8:07 am 08:07 Cloudy with Heavy Rain 58 14.4 56 13.3 93 93 NE 9 15 30.22 1023 2 2 0.05 1.27
8:45 am 08:45 Cloudy with Light Rain 57 13.9 55 12.8 93 93 ENE 8 13 30.22 1023 2 3 0.33 8.38
8:52 am 08:52 Cloudy with Rain 57 13.9 55 12.8 93 93 E 12 19 30.20 1023 2 3 0.34 8.64
9:28 am 09:28 Cloudy with Mist and Fog 57 13.9 55 12.8 93 93 E 9 15 30.22 1023 2 3 0.01 0.25
9:52 am 09:52 Cloudy with Mist and Fog 57 13.9 55 12.8 93 93 E 10 17 30.20 1023 1 1 0.01 0.25
10:20 am 10:20 Cloudy with Rain 58 14.4 55 12.8 90 90 E 13 20 30.22 1023 2 3 0.10 2.54
10:52 am 10:52 Cloudy with Light Rain 58 14.4 55 12.8 90 90 E 9 15 30.21 1023 2 3 0.12 3.05
11:09 am 11:09 Cloudy with Light Rain 58 14.4 56 13.3 93 93 E 8 13 30.23 1024 2 3 0.01 0.25
11:13 am 11:13 Cloudy with Mist and Fog 58 14.4 55 12.8 90 90 E 10 17 30.23 1024 6 10 0.01 0.25
11:52 am 11:52 Cloudy with Light Rain 58 14.4 56 13.3 93 93 ENE 8 13 30.23 1024 7 11 0.07 1.78
12:52 pm 12:52 Cloudy 61 16.1 57 13.9 87 87 E 14 22 30.22 1023 10 16 0.00 0.00
1:11 pm 13:11 Cloudy 62 16.7 57 13.9 84 84 ESE 13 20 30.21 1023 10 16 N/A
1:52 pm 13:52 Cloudy 62 16.7 57 13.9 84 84 ESE 13 20 30.20 1023 10 16 N/A
2:44 pm 14:44 Cloudy 64 17.8 58 14.4 81 81 E 13 20 30.20 1023 10 16 N/A
2:52 pm 14:52 Cloudy 64 17.8 58 14.4 81 81 E 12 19 30.20 1023 10 16 N/A
3:12 pm 15:12 Cloudy with Light Rain 65 18.3 58 14.4 78 78 E 13 20 30.20 1023 10 16 0.00 0.00
3:52 pm 15:52 Cloudy 65 18.3 57 13.9 76 76 E 13 20 30.20 1023 10 16 0.00 0.00
4:52 pm 16:52 Cloudy 66 18.9 58 14.4 75 75 E 12 19 30.19 1022 10 16 N/A
5:52 pm 17:52 Cloudy 67 19.4 57 13.9 71 71 E 12 19 30.19 1022 10 16 N/A
6:52 pm 18:52 Cloudy 66 18.9 57 13.9 73 73 E 10 17 30.19 1023 10 16 N/A
7:52 pm 19:52 Cloudy 65 18.3 57 13.9 76 76 E 8 13 30.19 1022 10 16 N/A
8:52 pm 20:52 Cloudy 64 17.8 57 13.9 78 78 E 7 11 30.20 1023 10 16 N/A
9:52 pm 21:52 Cloudy 63 17.2 57 13.9 81 81 E 8 13 30.21 1023 10 16 N/A
10:52 pm 22:52 Cloudy 62 16.7 56 13.3 80 80 E 7 11 30.22 1023 10 16 N/A
11:52 pm 23:52 Cloudy 61 16.1 56 13.3 84 84 E 8 13 30.21 1023 10 16 N/A

Powered by AerisWeather